Location: Ernsee
(50.8780°N, 12.0389°E)
Time: 01:35:34
(UTC+00:00)

MOS 1-B - Pass Details

Date: 20 January 2020
Orbit: 906 x 913 km, 99.4° (Epoch: 28 February)

Event Time Altitude Azimuth Distance (km) Brightness Sun altitude
Rises 05:09:59 0° 14° (NNE) 3,548 7.5 -17.5°
Reaches altitude 10° 05:12:25 10° 11° (N) 2,603 6.7 -17.1°
Maximum altitude 05:18:08 63° 292° (WNW) 1,012 4.3 -16.3°
Drops below altitude 10° 05:23:50 10° 213° (SSW) 2,591 6.5 -15.4°
Sets 05:26:15 0° 210° (SSW) 3,530 7.3 -15.0°
